Location: Alafon
(8.4500°N, 4.2333°E)
Time: 01:55:05
(UTC+00:00)

VEP-3 - Pass Details

Date: 05 July 2020
Orbit: 1024 x 33720 km, 23.7° (Epoch: 06 August)

Event Time Altitude Azimuth Distance (km) Brightness Sun altitude
Rises 19:49:47 0° 288° (WNW) 4,454 7.3 -24.0°
Reaches altitude 10° 19:53:29 10° 306° (NW) 2,939 6.1 -24.8°
Maximum altitude 19:57:54 22° 1° (N) 2,085 4.5 -25.7°
Drops below altitude 10° 20:03:04 10° 54° (NE) 3,485 5.1 -26.8°
Enters shadow 20:03:38 - 57° (ENE) 3,709 5.3 -26.9°
